Temp
9 9 9 9 9 9 9 9 9 9 9 9 9 9 9 9 9 9 9 9 9 9 9 9 9 9 9 9 9 9 9 9 9 9 9 9 9 9 9 9 9 10
9 9 9 9 9 9 9 9 9 9 9 9 9 9 9 9 9 9 9 9 9 9 9 9 9 9 9 9 9 9 9 9 9 9 9 9 9 9 9 9 9 9
10 9 9 9 9 9 9 9 9 9 9 9 9 9 9 9 9 9 9 9 9 9 9 9 9 9 9 9 9 9 9 9 9 9 9 9 9 9 9 9 9 9
10 10 9 9 9 9 9 9 9 9 9 9 9 9 9 9 9 9 9 9 9 9 9 9 9 9 9 9 9 9 9 9 9 9 9 9 9 9 9 9 9 9
10 10 9 9 9 9 9 9 9 9 9 9 9 9 9 9 9 9 9 9 9 9 9 9 9 9 9 9 9 9 9 9 9 9 9 9 9 9 9 9 9 9
10 10 9 9 9 9 9 9 9 9 9 9 9 9 9 9 9 9 9 9 9 9 9 9 9 9 9 9 9 9 9 9 9 9 9 9 9 9 9 9 9 9
10 10 10 9 9 9 9 9 9 9 9 9 9 9 9 9 9 9 9 9 9 9 9 9 9 9 9 9 9 9 9 9 9 9 9 9 9 9 9 9 9 9
10 10 10 10 10 9 9 9 9 9 9 9 9 9 9 9 9 9 9 9 9 10 9 9 9 9 9 9 9 9 9 9 9 9 9 9 9 9 9 9 9 9
10 10 10 10 10 10 10 9 9 9 9 9 9 9 9 9 9 9 9 9 9 9 9 9 9 9 9 9 9 9 9 9 9 9 9 9 9 9 9 9 9 9
10 10 10 10 10 10 10 10 9 9 9 9 9 9 9 9 9 9 9 9 9 9 9 9 9 9 9 9 9 9 9 9 9 9 9 9 9 9 9 9 9 9
10 10 10 10 10 10 10 10 10 9 9 9 9 9 9 9 9 9 9 9 9 9 9 9 9 9 9 9 9 9 9 9 9 9 9 9 9 9 9 9 9 9
10 10 10 10 10 10 10 10 10 10 9 9 9 9 9 9 9 9 9 9 9 9 9 9 9 9 9 9 9 9 9 9 9 9 9 9 9 9 9 9 9 9
10 10 10 10 10 10 10 10 10 10 10 10 9 9 9 9 9 9 9 9 9 9 9 9 9 9 9 9 9 9 9 9 9 9 9 9 9 9 9 9 9 9
10 10 10 10 10 10 9 9 9 9 9 9 9 9 9 9 9 9 9 9 9 9 9 9 9 9 9 9 9 9 9 9 9 9 9 9 9 9 9 9 9 9
10 10 10 10 10 10 9 9 9 9 9 9 9 9 9 9 9 9 9 9 9 9 9 9 9 9 9 9 9 9 9 9 9 9 9 9 9 9 9 9 9 9
10 10 10 10 10 10 9 9 9 9 9 9 9 9 9 9 9 9 9 9 9 9 9 9 9 9 9 9 9 9 9 9 9 9 9 9 9 9 9 9 9 9
10 10 10 9 9 10 10 9 9 9 9 9 9 9 9 9 9 9 9 10 9 9 10 10 10 10 9 9 9 9 9 9 9 9 9 9 9 9 9 9 9 9
10 10 10 10 9 9 9 9 9 9 9 9 9 9 9 9 9 10 10 9 9 9 9 10 10 9 9 9 9 9 9 9 9 9 9 9 9 9 8 8 9 9
9 10 10 10 10 10 9 9 9 9 9 9 9 9 9 9 9 9 9 9 9 9 9 9 9 9 9 9 9 9 9 9 9 9 9 9 8 8 8 9 9 9
9 10 10 10 10 10 10 9 10 10 10 10 10 9 9 9 9 9 9 9 9 9 9 9 9 9 9 9 9 9 9 9 9 9 9 9 8 8 8 9 9 9
10 10 10 10 10 10 10 10 10 10 10 10 10 9 9 9 9 9 9 9 9 9 9 9 9 9 9 9 9 9 9 9 9 9 9 9 8 8 8 8 8 9
9 10 10 9 9 9 10 10 10 10 9 9 9 9 9 9 9 9 9 9 9 9 9 9 9 9 9 9 9 9 9 9 9 9 9 8 8 8 8 8 8 8
9 9 9 9 9 9 9 9 10 10 9 9 9 9 9 9 9 9 9 9 9 9 9 9 9 9 9 9 9 9 9 9 9 9 8 8 8 8 8 8 8 8
9 9 9 9 9 9 9 9 9 9 9 9 9 9 9 9 9 9 9 9 9 8 8 9 9 9 9 9 9 9 9 9 9 8 8 8 8 9 8 8 8 8
9 9 9 9 9 9 9 9 9 9 9 9 9 8 8 9 9 9 9 9 9 9 8 8 8 8 8 9 9 9 8 8 8 8 8 9 9 9 9 8 8 8
9 9 9 9 9 9 9 9 9 8 8 8 8 9 9 8 8 9 8 8 8 9 9 8 8 8 8 8 8 8 8 8 8 8 8 8 9 9 8 8 8 8
Height
3198 3199 3201 3202 3204 3205 3206 3207 3209 3210 3211 3213 3214 3215 3216 3217 3218 3219 3220 3222 3223 3224 3224 3225 3226 3227 3228 3228 3229 3229 3230 3231 3231 3232 3233 3233 3233 3234 3234 3235 3235 3236
3198 3200 3201 3202 3204 3205 3206 3207 3209 3210 3211 3212 3213 3214 3215 3216 3217 3219 3220 3221 3222 3223 3224 3224 3225 3226 3227 3227 3228 3229 3229 3230 3230 3231 3231 3232 3232 3233 3233 3234 3234 3234
3198 3200 3201 3202 3203 3205 3206 3207 3208 3210 3211 3212 3213 3214 3215 3216 3217 3218 3219 3220 3221 3222 3223 3223 3224 3225 3226 3226 3227 3228 3228 3229 3229 3230 3230 3230 3231 3231 3232 3232 3232 3233
3198 3199 3200 3202 3203 3204 3205 3206 3208 3209 3210 3211 3212 3213 3214 3215 3216 3217 3218 3219 3220 3221 3222 3222 3223 3224 3225 3226 3226 3227 3227 3228 3228 3228 3229 3229 3229 3230 3230 3230 3231 3231
3197 3198 3200 3201 3202 3203 3204 3206 3207 3208 3210 3211 3212 3213 3214 3215 3216 3216 3217 3218 3219 3220 3221 3222 3223 3223 3224 3225 3225 3226 3226 3227 3227 3227 3227 3228 3228 3228 3229 3229 3229 3229
3196 3197 3199 3200 3201 3202 3203 3205 3206 3207 3209 3210 3211 3212 3213 3214 3215 3216 3217 3218 3218 3219 3220 3221 3222 3222 3223 3224 3224 3225 3225 3225 3226 3226 3226 3226 3226 3227 3227 3227 3228 3228
3195 3196 3198 3199 3200 3201 3203 3204 3205 3206 3208 3209 3210 3211 3212 3213 3214 3215 3216 3217 3218 3219 3220 3220 3221 3221 3222 3222 3223 3223 3224 3224 3224 3224 3225 3225 3225 3225 3225 3226 3226 3227
3193 3195 3196 3198 3199 3200 3202 3203 3204 3205 3206 3207 3209 3210 3211 3212 3213 3214 3215 3216 3217 3218 3219 3219 3220 3220 3220 3221 3221 3222 3222 3223 3223 3223 3223 3224 3224 3224 3224 3225 3225 3226
3191 3193 3194 3196 3197 3199 3200 3202 3203 3204 3205 3206 3207 3209 3210 3211 3212 3213 3214 3215 3216 3217 3217 3218 3219 3219 3220 3220 3221 3221 3222 3222 3222 3222 3222 3223 3223 3223 3223 3223 3224 3224
3188 3190 3192 3194 3196 3197 3199 3200 3201 3202 3204 3205 3206 3207 3208 3209 3210 3211 3212 3213 3214 3215 3216 3217 3218 3218 3219 3220 3220 3221 3221 3221 3221 3221 3222 3222 3222 3222 3222 3222 3223 3223
3187 3188 3189 3191 3194 3196 3197 3199 3200 3201 3202 3203 3205 3206 3207 3208 3209 3210 3211 3212 3213 3214 3215 3216 3217 3217 3218 3219 3219 3220 3220 3220 3220 3220 3220 3221 3221 3222 3222 3222 3222 3222
3185 3186 3188 3190 3192 3194 3195 3197 3198 3200 3201 3202 3203 3204 3205 3206 3207 3208 3209 3210 3212 3212 3213 3214 3215 3216 3216 3217 3218 3218 3218 3218 3218 3219 3219 3220 3220 3220 3220 3221 3221 3221
3184 3185 3187 3188 3190 3192 3193 3195 3196 3198 3199 3200 3201 3202 3203 3204 3205 3206 3208 3209 3210 3211 3212 3212 3213 3214 3214 3215 3216 3216 3216 3217 3217 3218 3218 3218 3219 3219 3219 3219 3219 3219
3183 3184 3185 3187 3188 3190 3191 3192 3194 3195 3197 3198 3199 3201 3202 3203 3204 3205 3206 3207 3208 3209 3209 3210 3211 3211 3212 3213 3213 3214 3214 3215 3215 3216 3216 3217 3217 3217 3218 3218 3218 3218
3182 3183 3184 3185 3187 3188 3190 3191 3192 3193 3195 3196 3197 3199 3200 3201 3202 3203 3204 3205 3206 3207 3208 3208 3209 3209 3210 3211 3211 3212 3212 3213 3213 3214 3214 3215 3215 3216 3216 3217 3217 3217
3179 3180 3182 3183 3184 3186 3188 3189 3190 3191 3192 3193 3195 3196 3198 3199 3200 3201 3202 3203 3204 3205 3206 3206 3207 3208 3208 3209 3209 3210 3210 3210 3211 3211 3212 3212 3213 3214 3214 3215 3215 3215
3175 3176 3178 3180 3182 3183 3185 3186 3188 3189 3190 3191 3192 3194 3195 3196 3197 3198 3200 3201 3202 3202 3203 3204 3205 3206 3207 3207 3207 3208 3208 3208 3209 3209 3209 3210 3210 3211 3212 3213 3214 3213
3173 3174 3175 3176 3178 3180 3181 3183 3184 3185 3187 3188 3190 3191 3193 3193 3194 3196 3197 3198 3199 3200 3201 3202 3203 3204 3204 3205 3205 3206 3206 3206 3206 3207 3207 3208 3209 3210 3210 3211 3211 3211
3172 3172 3173 3174 3174 3176 3177 3179 3180 3182 3184 3186 3187 3189 3190 3191 3192 3193 3194 3195 3196 3197 3198 3199 3200 3201 3201 3202 3203 3203 3203 3203 3204 3204 3204 3205 3206 3206 3207 3209 3209 3209
3168 3170 3171 3172 3173 3174 3174 3176 3178 3180 3181 3183 3184 3186 3187 3188 3189 3190 3191 3192 3193 3194 3196 3197 3198 3198 3199 3199 3200 3200 3201 3201 3201 3201 3202 3202 3203 3204 3206 3207 3207 3207
3164 3167 3168 3170 3171 3172 3173 3174 3175 3177 3179 3180 3181 3182 3184 3185 3186 3187 3188 3189 3190 3191 3192 3193 3194 3195 3196 3196 3197 3198 3198 3198 3199 3199 3200 3200 3202 3203 3203 3204 3203 3203
3161 3163 3165 3167 3168 3169 3170 3171 3172 3173 3175 3177 3178 3179 3181 3183 3184 3186 3187 3187 3188 3189 3189 3190 3191 3192 3193 3194 3194 3195 3195 3195 3196 3197 3197 3197 3198 3199 3200 3200 3199 3198
3159 3160 3162 3163 3165 3166 3168 3169 3171 3172 3173 3174 3175 3177 3179 3180 3182 3183 3184 3185 3186 3187 3188 3189 3189 3189 3190 3191 3191 3192 3192 3193 3193 3194 3194 3194 3194 3194 3196 3196 3195 3195
3155 3157 3158 3160 3162 3164 3166 3168 3169 3170 3171 3172 3173 3174 3175 3176 3178 3179 3180 3182 3183 3184 3185 3186 3187 3188 3188 3188 3189 3189 3188 3188 3189 3190 3191 3191 3191 3190 3191 3191 3192 3191
3152 3154 3155 3157 3159 3161 3163 3165 3166 3167 3168 3169 3170 3171 3172 3174 3176 3177 3178 3179 3180 3181 3182 3183 3184 3186 3187 3187 3187 3186 3185 3185 3186 3187 3187 3188 3188 3187 3186 3186 3187 3187
3150 3151 3152 3154 3156 3158 3159 3161 3162 3163 3163 3164 3165 3167 3170 3173 3173 3174 3175 3178 3179 3179 3178 3179 3180 3182 3183 3184 3185 3185 3184 3183 3184 3184 3184 3184 3184 3182 3182 3183 3184 3184
Wind_Speed
14 13 11 11 12 12 12 13 12 13 14 15 16 15 15 15 15 15 15 15 15 15 14 14 14 14 15 14 14 13 12 12 12 12 13 13 14 14 14 14 14 14
15 14 14 13 13 13 13 14 13 13 14 15 16 16 16 16 15 15 15 15 15 15 15 15 15 14 15 14 14 13 12 12 13 13 13 13 14 14 14 14 15 15
15 15 15 15 15 15 14 14 13 13 13 14 15 15 15 16 15 15 15 15 15 15 15 15 15 15 15 14 14 13 13 13 13 13 13 13 13 14 14 15 15 15
16 16 16 16 16 16 15 14 13 13 13 13 14 14 15 15 15 15 15 16 16 16 16 16 15 15 15 14 13 12 12 13 13 13 12 12 13 13 14 15 15 15
17 17 17 17 17 16 16 14 14 13 13 13 14 14 15 15 15 15 15 15 16 17 16 16 15 15 14 12 12 12 13 13 14 13 13 12 13 13 13 14 14 14
18 17 17 18 17 17 16 15 14 14 13 14 14 14 14 15 15 15 15 15 16 16 16 15 14 14 13 13 12 13 13 14 15 14 13 13 13 13 13 13 13 13
18 18 18 18 18 18 17 16 15 14 14 14 15 14 14 14 14 15 15 15 15 15 15 14 14 14 14 14 14 14 14 15 15 15 13 14 14 14 14 14 13 11
18 18 18 19 19 18 17 16 16 15 15 15 15 15 14 14 14 14 15 15 15 15 15 15 14 15 15 15 15 15 15 15 15 15 14 14 15 15 14 13 11 9
20 19 19 20 20 19 18 17 16 16 17 16 16 15 14 14 14 15 15 15 16 16 16 16 16 16 16 16 15 15 15 15 16 16 15 15 16 15 14 12 11 10
21 21 21 21 21 20 19 18 18 18 17 17 16 16 15 15 16 17 17 17 16 16 17 16 16 16 16 16 15 14 14 15 16 16 16 16 16 14 13 13 12 11
21 22 22 22 22 21 21 20 19 19 19 18 17 17 16 16 17 18 18 18 17 17 17 17 17 17 17 16 15 15 15 15 16 16 16 16 15 14 13 13 13 12
20 21 22 22 22 22 21 21 20 20 20 19 18 18 18 17 18 18 18 18 18 17 17 17 17 17 17 16 16 16 16 16 16 16 16 15 15 14 14 14 14 13
19 19 21 22 22 22 22 22 22 21 21 21 20 20 19 19 18 18 19 19 19 18 18 17 18 18 17 17 17 17 16 16 16 16 15 15 14 14 14 14 14 14
19 18 19 21 22 22 23 23 23 22 22 22 22 21 21 20 19 19 19 20 20 19 19 19 19 19 18 18 17 17 17 16 16 16 16 15 15 15 15 15 16 16
20 19 19 20 21 22 22 23 23 23 22 23 23 22 21 20 20 20 20 20 20 20 19 19 20 19 19 18 18 18 18 17 17 17 17 16 16 16 16 16 17 18
22 21 21 20 20 21 21 21 22 22 22 23 23 22 22 21 21 21 21 21 21 20 20 20 19 19 19 18 19 19 19 19 19 18 18 17 17 17 17 18 19 19
24 23 23 22 21 21 20 21 21 22 22 23 22 22 22 22 22 22 22 22 22 22 21 21 20 19 19 19 20 20 20 20 20 20 20 20 19 19 18 18 19 20
25 25 25 24 23 22 22 22 22 22 23 23 22 22 22 22 23 23 22 23 23 23 23 22 21 21 21 21 22 22 22 21 21 21 21 21 21 20 20 20 20 20
26 26 26 26 25 25 24 24 23 23 23 23 22 22 23 23 22 22 22 23 23 23 23 23 23 23 23 23 23 23 23 23 23 23 23 22 23 22 21 21 21 21
26 26 26 27 26 26 26 25 25 24 23 23 23 24 24 24 23 23 22 22 22 23 23 24 24 25 25 25 24 24 24 24 25 25 25 24 24 23 20 18 19 20
26 26 26 27 27 27 28 27 26 25 24 24 25 25 25 25 25 24 23 23 23 24 24 24 25 26 27 26 25 24 25 25 26 25 25 25 25 24 21 19 19 21
25 25 26 27 28 29 30 29 29 28 27 27 26 26 26 26 26 26 25 24 24 25 25 25 26 27 27 26 26 25 25 26 26 25 24 24 26 26 24 22 21 22
23 24 25 26 28 30 31 30 30 30 29 29 28 27 27 27 27 27 26 26 25 25 26 26 27 28 27 27 27 27 27 27 26 25 24 25 27 28 27 25 23 23
24 24 24 25 26 28 29 29 28 29 29 30 30 29 29 29 29 28 28 29 28 26 26 26 27 28 28 28 28 28 29 28 26 26 26 27 28 29 28 27 25 24
24 25 26 25 25 27 28 28 27 27 29 31 31 32 32 31 30 30 30 30 29 27 26 26 26 27 28 29 30 30 30 27 25 25 26 27 29 31 30 29 26 25
22 23 24 25 26 26 28 29 28 27 29 32 33 33 31 31 31 32 31 29 29 29 28 26 25 26 29 30 32 33 30 26 24 25 26 27 28 30 31 28 24 23
Wind_Direction
204 200 194 192 195 195 194 196 197 198 198 197 194 193 194 195 197 199 201 200 201 203 206 210 214 216 217 218 221 224 226 228 230 232 234 237 239 241 245 251 256 259
206 203 200 197 197 197 197 197 197 196 197 198 197 196 196 199 200 200 202 202 202 203 205 209 212 214 215 217 221 225 227 229 233 236 237 239 241 244 247 252 256 259
207 205 204 202 200 199 199 200 200 199 199 201 201 201 202 203 205 205 206 205 204 205 208 211 213 214 216 218 221 225 228 232 237 239 239 241 244 248 251 254 256 258
210 207 207 208 206 204 203 204 204 204 206 207 206 205 205 205 207 208 209 207 206 208 211 214 215 216 219 222 225 228 232 236 239 241 243 247 250 251 253 254 256 258
213 210 209 210 211 209 209 210 208 208 209 210 210 209 208 209 209 209 209 208 207 210 213 215 216 218 219 224 227 230 233 237 241 243 246 249 250 250 251 253 254 255
215 213 212 213 213 213 214 214 213 212 209 209 211 212 213 214 213 211 212 211 210 211 212 214 216 218 220 224 229 233 235 238 241 245 246 246 247 247 247 249 250 251
214 215 215 216 217 216 216 216 216 215 211 210 212 213 215 217 215 213 214 215 214 212 212 213 215 218 221 225 229 234 236 238 241 242 242 242 244 244 245 247 250 254
214 215 217 219 220 219 218 217 217 216 215 215 215 216 217 217 216 214 214 215 214 213 213 215 216 219 223 226 230 235 237 239 241 242 242 242 242 243 245 246 249 253
214 215 218 220 221 221 220 220 221 221 220 220 219 220 220 217 216 216 215 213 213 214 215 217 221 223 226 229 232 236 240 241 242 243 243 243 243 245 245 246 246 247
215 215 217 220 222 223 223 223 225 226 226 225 223 223 223 221 220 220 219 216 215 215 217 220 224 228 230 233 235 238 241 242 243 243 242 243 246 248 248 249 250 251
219 217 218 219 222 224 226 227 228 230 230 229 227 227 226 225 224 224 224 223 222 221 222 224 227 230 233 235 237 240 241 240 240 240 238 239 243 247 249 252 256 259
223 222 221 220 221 223 227 230 231 231 231 230 229 228 227 227 226 227 228 228 228 228 228 229 230 232 234 236 238 241 242 242 241 241 239 238 240 245 249 254 261 266
230 226 225 225 225 224 225 228 230 232 232 231 229 228 227 227 227 227 229 230 230 230 230 231 234 236 238 239 240 241 244 246 247 246 245 243 243 246 251 257 264 268
235 232 228 227 228 228 227 227 229 230 232 232 231 229 228 228 229 229 230 231 232 232 232 234 237 240 242 243 244 244 246 249 252 253 253 252 251 251 254 259 265 268
238 237 234 231 231 232 232 232 231 231 232 233 234 233 231 231 232 233 233 234 234 235 236 237 240 243 245 247 248 248 249 251 254 256 258 258 258 259 261 265 268 270
234 237 238 237 235 235 236 237 236 235 235 235 235 235 234 234 235 236 237 238 238 239 239 240 242 244 246 248 248 248 249 250 252 255 259 261 263 264 265 267 269 269
229 230 233 236 237 237 236 237 238 238 237 237 236 236 235 236 236 237 238 239 240 241 242 243 244 244 246 247 248 249 250 251 253 255 257 259 262 264 265 265 264 264
229 228 228 230 232 234 234 235 236 238 239 238 238 237 236 237 237 237 239 239 240 241 242 244 245 244 245 246 249 250 252 253 254 256 257 260 261 262 261 261 261 261
235 233 230 228 229 229 231 232 234 236 238 239 238 238 237 237 237 238 239 240 241 242 243 245 244 243 243 244 246 248 249 250 252 253 254 256 256 256 256 258 261 264
240 240 235 232 232 230 230 232 234 235 237 237 237 237 237 237 237 236 236 237 240 241 243 244 244 242 242 242 243 245 248 250 251 252 255 258 264 268 271 270 270 272
239 241 238 236 236 235 233 233 234 235 236 236 236 237 237 237 237 236 235 235 237 238 238 239 239 239 240 242 243 245 248 251 253 256 262 270 278 283 284 281 276 277
235 238 239 239 238 237 236 234 233 234 236 236 237 236 237 238 239 240 239 238 238 239 238 236 235 236 239 242 244 246 248 251 255 259 265 272 277 279 279 278 276 277
232 234 237 240 238 237 238 238 237 236 237 238 238 237 237 238 239 241 242 241 240 240 240 239 239 239 239 241 244 248 250 252 256 261 264 269 274 276 276 275 277 278
230 233 236 238 238 238 240 243 243 242 242 243 241 238 237 236 236 238 239 239 238 238 241 244 245 246 247 246 245 246 249 252 256 260 264 267 271 275 275 274 276 279
230 233 235 237 239 239 241 244 246 245 244 245 244 242 240 238 237 238 240 242 241 240 242 246 251 256 260 258 255 253 255 258 261 264 267 269 271 272 271 270 273 276
234 236 238 240 242 243 242 242 242 240 240 241 242 243 241 240 240 240 240 243 245 244 245 247 252 259 264 266 266 266 266 267 269 271 272 272 271 271 270 270 272 275